This is the latest recevied weather packets stored in our database for station/object G4KVI. If no packets are shown the sender has not sent any weather packets the latest 10 day(s).
| Time | Temp. | Humidity | Pressure | Rain* | Wind** | Luminosity | Snow |
|---|---|---|---|---|---|---|---|
| 1787903704 | 18.89° C | 77% | 1008.9 hPa | 0 mm | - | 298 W/m² | - |
| 1787903404 | 18.89° C | 76% | 1008.7 hPa | 0 mm | - | 201 W/m² | - |
| 1787903103 | 18.89° C | 77% | 1008.7 hPa | 0 mm | - | 239 W/m² | - |
| 1787902804 | 18.33° C | 78% | 1008.8 hPa | 0 mm | - | 198 W/m² | - |
| 1787902504 | 18.33° C | 79% | 1008.7 hPa | 0 mm | - | 162 W/m² | - |
| 1787902204 | 18.33° C | 79% | 1008.9 hPa | 0 mm | - | 143 W/m² | - |
| 1787901904 | 17.78° C | 80% | 1008.7 hPa | 0 mm | - | 123 W/m² | - |
| 1787901604 | 17.78° C | 81% | 1008.9 hPa | 0 mm | - | 112 W/m² | - |
| 1787901303 | 17.78° C | 81% | 1008.9 hPa | 0 mm | - | 115 W/m² | - |
| 1787901004 | 17.78° C | 82% | 1008.7 hPa | 0 mm | - | 103 W/m² | - |
| 1787900704 | 17.78° C | 82% | 1009 hPa | 0 mm | - | 104 W/m² | - |
| 1787900404 | 17.22° C | 83% | 1009 hPa | 0 mm | - | 120 W/m² | - |
| 1787900104 | 17.22° C | 84% | 1009 hPa | 0 mm | - | 101 W/m² | - |
| 1787899804 | 17.22° C | 84% | 1008.8 hPa | 0 mm | - | 103 W/m² | - |
| 1787899503 | 16.67° C | 86% | 1008.8 hPa | 0 mm | - | 100 W/m² | - |
| 1787899204 | 16.67° C | 87% | 1008.7 hPa | 0 mm | - | 93 W/m² | - |
| 1787898904 | 16.67° C | 89% | 1008.8 hPa | 0 mm | - | 86 W/m² | - |
| 1787898604 | 16.11° C | 91% | 1008.6 hPa | 0 mm | - | 78 W/m² | - |
| 1787898304 | 15.56° C | 92% | 1008.8 hPa | 0 mm | - | 69 W/m² | - |
| 1787898004 | 15.56° C | 92% | 1008.8 hPa | 0 mm | - | 61 W/m² | - |
| 1787897703 | 15° C | 93% | 1009 hPa | 0 mm | - | 55 W/m² | - |
| 1787897404 | 15° C | 93% | 1008.8 hPa | 0 mm | - | 31 W/m² | - |
| 1787897104 | 15° C | 93% | 1008.8 hPa | 0 mm | - | 30 W/m² | - |
| 1787896812 | 15° C | 93% | 1008.9 hPa | 0 mm | - | 20 W/m² | - |
| 1787896503 | 15° C | 93% | 1008.7 hPa | 0 mm | - | 32 W/m² | - |
* Rain latest hour (hover to see other rain measurements)
** Current wind speed in m/s (hover to see current wind gust speed)